(113753) = 2002 TP167

Discovered at Palomar on 2002-10-03 by NEAT.

Orbit

Orbit type: Main Belt

Note: WebGL enabled browser required.

epoch2024-03-31.0
epoch JD2460400.5
perihelion date2022-07-14.99067
perihelion JD2459775.49068
argument of perihelion (°)97.67395
ascending node (°)272.19873
inclination (°)12.17528
eccentricity0.1193861
perihelion distance (AU)2.5511219
Tisserand w.r.t. Jupiter3.2
ΔV w.r.t. Earth (km/sec)10.7
semimajor axis (AU)2.8969812
mean anomaly (°)124.93153
mean daily motion (°/day)0.19988750
aphelion distance (AU)3.243
period (years)4.93
P-vector [x]0.96291603
P-vector [y]0.07338508
P-vector [z]0.25962926
Q-vector [x]-0.16845791
Q-vector [y]0.91520361
Q-vector [z]0.36609328
absolute magnitude14.14
phase slope0.15
uncertainty0
referenceE2024-GI3
observations used1962
oppositions17
arc length (days)9243
first opposition used1998
last opposition used2024
residual rms (arc-secs)0.56
perturbers coarse indicatorM-v
perturbers precise indicator003Ek
first observation date used1998-12-22.0
last observation date used2024-04-12.0
computer nameMPCLINUX
JD of orbit computation2456700.473739
perihelion JD uncertainty (days)1.3005E-04
argument of perihelion uncertainty (°)4.4776E-05
ascending node uncertainty (°)3.3528E-05
inclination uncertainty (°)5.2538E-06
eccentricity uncertainty 9.7379E-08
perihelion distance uncertainty (AU)2.8021E-07
Minimum Orbit Intersection Distances (in AU)
for orbit epoch: 2460400.5, reference: E2024-GI3
Mercury2.2142
Venus1.86007
Earth1.58693
Mars1.17158
Jupiter2.30803
Saturn6.14305
Uranus15.3182
Neptune27.1922

Observations

1986 total observations over interval: 1998 12 22.40579 – 2024 03 17.399698
These data are available for download (format description).

Date (UT) J2000 RA J2000 Dec Magn Location Ref
1998 12 22.40579 07 34 15.82 +17 43 35.5 18.4   704 – Lincoln Laboratory ETS, New Mexico MPS 92727
1998 12 22.42861 07 34 14.88 +17 43 35.8 19.2   704 – Lincoln Laboratory ETS, New Mexico MPS 92727
1998 12 22.45137 07 34 13.55 +17 43 28.1 18.4   704 – Lincoln Laboratory ETS, New Mexico MPS 92727
1998 12 22.47416 07 34 12.38 +17 43 25.1 19.2   704 – Lincoln Laboratory ETS, New Mexico MPS 92727
2002 07 13.39369 00 10 49.03 +16 17 02.8 19.0   704 – Lincoln Laboratory ETS, New Mexico MPS 92727
2002 07 13.40670 00 10 49.46 +16 17 11.1 19.0   704 – Lincoln Laboratory ETS, New Mexico MPS 92727
2002 07 13.41971 00 10 49.89 +16 17 17.9 19.4   704 – Lincoln Laboratory ETS, New Mexico MPS 92727
2002 07 13.43273 00 10 50.32 +16 17 26.1 18.7   704 – Lincoln Laboratory ETS, New Mexico MPS 92727
2002 08 01.39308 00 17 30.38 +19 03 23.9 18.6   704 – Lincoln Laboratory ETS, New Mexico MPS 92727
2002 08 01.40690 00 17 30.48 +19 03 30.0 18.7   704 – Lincoln Laboratory ETS, New Mexico MPS 92727
2002 08 01.42075 00 17 30.61 +19 03 36.5 18.9   704 – Lincoln Laboratory ETS, New Mexico MPS 92727
2002 08 15.29928 00 17 09.02 +20 33 39.1 18.4   704 – Lincoln Laboratory ETS, New Mexico MPS 92727
2002 08 15.31547 00 17 08.78 +20 33 44.3 18.8   704 – Lincoln Laboratory ETS, New Mexico MPS 92727
2002 08 15.33162 00 17 08.59 +20 33 49.1 18.6   704 – Lincoln Laboratory ETS, New Mexico MPS 92727
2002 08 15.34783 00 17 08.37 +20 33 54.8 18.7   704 – Lincoln Laboratory ETS, New Mexico MPS 92727
2002 08 15.36397 00 17 08.18 +20 33 59.9 18.6   704 – Lincoln Laboratory ETS, New Mexico MPS 92727
2002 08 30.34132 00 11 29.40 +21 27 54.5 18.1   704 – Lincoln Laboratory ETS, New Mexico MPS 92727
2002 08 30.35519 00 11 28.94 +21 27 55.8 18.4   704 – Lincoln Laboratory ETS, New Mexico MPS 92727
2002 08 30.36914 00 11 28.44 +21 27 56.7 18.7   704 – Lincoln Laboratory ETS, New Mexico MPS 92727
2002 08 30.38306 00 11 27.95 +21 27 58.4 18.6   704 – Lincoln Laboratory ETS, New Mexico MPS 92727
2002 08 30.39691 00 11 27.46 +21 28 00.2 18.2   704 – Lincoln Laboratory ETS, New Mexico MPS 92727
2002 09 03.33424 00 09 08.99 +21 33 10.2 17.8   644 – Palomar Mountain/NEAT MPS 92727
2002 09 03.35664 00 09 08.11 +21 33 11.3 17.6   644 – Palomar Mountain/NEAT MPS 92727
2002 09 03.37988 00 09 07.19 +21 33 12.4 17.8   644 – Palomar Mountain/NEAT MPS 92727
2002 09 11.47773 00 03 30.67 +21 30 43.7 17.1   644 – Palomar Mountain/NEAT MPS 92727
2002 09 11.48953 00 03 30.15 +21 30 41.9 17.2   644 – Palomar Mountain/NEAT MPS 92727
2002 09 11.49068 00 03 30.11 +21 30 42.0 17.2   644 – Palomar Mountain/NEAT MPS 92727
2002 09 11.49996 00 03 29.67 +21 30 40.9 17.3   644 – Palomar Mountain/NEAT MPS 92727
2002 09 11.50114 00 03 29.62 +21 30 41.0 17.3   644 – Palomar Mountain/NEAT MPS 92727
2002 09 11.51169 00 03 29.15 +21 30 39.8 17.2   644 – Palomar Mountain/NEAT MPS 92727
2002 10 03.23914 23 46 12.87 +20 01 38.4 17.3   644 – Palomar Mountain/NEAT MPS 64109
2002 10 03.26044 23 46 11.86 +20 01 30.3 17.3   644 – Palomar Mountain/NEAT MPS 64109
2002 10 03.29698 23 46 10.14 +20 01 16.2 17.0   644 – Palomar Mountain/NEAT MPS 64109
2002 10 05.26597 23 44 42.08 +19 48 17.9 17.2 R 699 – Lowell Observatory-LONEOS MPS 64109
2002 10 05.28444 23 44 41.23 +19 48 10.2   699 – Lowell Observatory-LONEOS MPS 64109
2002 10 05.30286 23 44 40.39 +19 48 02.5   699 – Lowell Observatory-LONEOS MPS 64109
2002 10 05.32134 23 44 39.51 +19 47 55.6   699 – Lowell Observatory-LONEOS MPS 64109
2002 10 06.25419 23 43 58.97 +19 41 34.7 18.0   704 – Lincoln Laboratory ETS, New Mexico MPS 64109
2002 10 06.26976 23 43 58.26 +19 41 27.8 18.1   704 – Lincoln Laboratory ETS, New Mexico MPS 64109
2002 10 06.28530 23 43 57.56 +19 41 21.4 18.0   704 – Lincoln Laboratory ETS, New Mexico MPS 64109
2002 10 06.30078 23 43 56.87 +19 41 14.7 18.2   704 – Lincoln Laboratory ETS, New Mexico MPS 64109
2002 10 06.31628 23 43 56.24 +19 41 08.2 19.7   704 – Lincoln Laboratory ETS, New Mexico MPS 64109
2002 10 09.16669 23 41 57.11 +19 20 59.5 17.8   704 – Lincoln Laboratory ETS, New Mexico MPS 64109
2002 10 09.18245 23 41 56.52 +19 20 52.9 18.8   704 – Lincoln Laboratory ETS, New Mexico MPS 64109
2002 10 09.19821 23 41 55.73 +19 20 45.0 18.3   704 – Lincoln Laboratory ETS, New Mexico MPS 64109
2002 10 09.21404 23 41 55.09 +19 20 39.2 18.1   704 – Lincoln Laboratory ETS, New Mexico MPS 64109
2002 10 09.22982 23 41 54.45 +19 20 32.3 18.0   704 – Lincoln Laboratory ETS, New Mexico MPS 64109
2002 10 09.24094 23 41 54.08 +19 20 27.2 18.6   704 – Lincoln Laboratory ETS, New Mexico MPS 64109
2002 10 09.28517 23 41 52.02 +19 20 08.8 18.1   704 – Lincoln Laboratory ETS, New Mexico MPS 64109
2002 10 09.30058 23 41 51.41 +19 20 01.6 17.7   704 – Lincoln Laboratory ETS, New Mexico MPS 64109
2002 10 15.16978 23 38 14.36 +18 35 53.9 17.3   644 – Palomar Mountain/NEAT MPS 64109
2002 10 15.19067 23 38 13.61 +18 35 44.6 18.5   644 – Palomar Mountain/NEAT MPS 64109
2002 10 15.21166 23 38 12.87 +18 35 34.6 17.3   644 – Palomar Mountain/NEAT MPS 64109
2002 10 15.26887 23 38 10.75 +18 35 07.9 18.1   704 – Lincoln Laboratory ETS, New Mexico MPS 68063
2002 10 15.28533 23 38 10.17 +18 35 00.2 18.1   704 – Lincoln Laboratory ETS, New Mexico MPS 68063
2002 10 15.30171 23 38 09.60 +18 34 52.5 17.8   704 – Lincoln Laboratory ETS, New Mexico MPS 68063
2002 11 03.16671 23 31 59.83 +16 09 47.4 18.2   704 – Lincoln Laboratory ETS, New Mexico MPS 66127
2002 11 03.18395 23 31 59.70 +16 09 40.3 18.5   704 – Lincoln Laboratory ETS, New Mexico MPS 66127
2002 11 03.21847 23 31 59.48 +16 09 24.9 18.0   704 – Lincoln Laboratory ETS, New Mexico MPS 66127
2002 11 03.23569 23 31 59.33 +16 09 17.9 17.3   704 – Lincoln Laboratory ETS, New Mexico MPS 66127
2002 11 07.19063 23 31 53.74 +15 41 44.7 18.0   704 – Lincoln Laboratory ETS, New Mexico MPS 66127
2002 11 07.20741 23 31 53.78 +15 41 37.6 18.7   704 – Lincoln Laboratory ETS, New Mexico MPS 66127
2002 11 07.22424 23 31 53.75 +15 41 31.2 18.3   704 – Lincoln Laboratory ETS, New Mexico MPS 66127
2002 11 07.24167 23 31 53.75 +15 41 24.0 18.5   704 – Lincoln Laboratory ETS, New Mexico MPS 66127
2002 11 07.25867 23 31 53.74 +15 41 17.3 18.4   704 – Lincoln Laboratory ETS, New Mexico MPS 66127
2002 12 01.07375 23 39 59.71 +13 43 02.2 19.0   704 – Lincoln Laboratory ETS, New Mexico MPS 68063
2002 12 01.08826 23 40 00.12 +13 43 00.1 19.6   704 – Lincoln Laboratory ETS, New Mexico MPS 68063
2002 12 01.10274 23 40 00.75 +13 42 56.2 19.3   704 – Lincoln Laboratory ETS, New Mexico MPS 68063
2002 12 01.11720 23 40 01.24 +13 42 55.0 19.2   704 – Lincoln Laboratory ETS, New Mexico MPS 68063
2002 12 01.13167 23 40 01.75 +13 42 52.4 19.0   704 – Lincoln Laboratory ETS, New Mexico MPS 68063
2002 12 06.13362 23 43 25.68 +13 29 55.0 18.4   704 – Lincoln Laboratory ETS, New Mexico MPS 68063
2002 12 06.14819 23 43 26.33 +13 29 53.2 18.8   704 – Lincoln Laboratory ETS, New Mexico MPS 68063
2002 12 06.16278 23 43 26.98 +13 29 52.2 19.0   704 – Lincoln Laboratory ETS, New Mexico MPS 68063
2002 12 06.17741 23 43 27.58 +13 29 49.8 19.2   704 – Lincoln Laboratory ETS, New Mexico MPS 68063
2002 12 06.19201 23 43 28.26 +13 29 47.5 19.2   704 – Lincoln Laboratory ETS, New Mexico MPS 68063
2003 01 01.07315 00 08 22.22 +13 27 19.1 18.9   704 – Lincoln Laboratory ETS, New Mexico MPS 69964
2003 01 01.08841 00 08 23.28 +13 27 19.1 19.7   704 – Lincoln Laboratory ETS, New Mexico MPS 69964
2003 01 01.10332 00 08 24.31 +13 27 21.9 19.5   704 – Lincoln Laboratory ETS, New Mexico MPS 69964
2003 01 01.11810 00 08 25.35 +13 27 23.9 19.5   704 – Lincoln Laboratory ETS, New Mexico MPS 69964
2003 01 01.13281 00 08 26.43 +13 27 25.6 19.3   704 – Lincoln Laboratory ETS, New Mexico MPS 69964
2003 01 04.11019 00 11 57.29 +13 33 18.8 18.9   704 – Lincoln Laboratory ETS, New Mexico MPS 69964
2003 01 04.12690 00 11 58.43 +13 33 21.0 19.3   704 – Lincoln Laboratory ETS, New Mexico MPS 69964
2003 01 04.14367 00 11 59.65 +13 33 23.9 19.1   704 – Lincoln Laboratory ETS, New Mexico MPS 69964
2003 10 27.37276 08 01 49.53 +19 08 36.4 19.2 R 699 – Lowell Observatory-LONEOS MPS 90464
2003 10 27.38528 08 01 50.08 +19 08 33.3   699 – Lowell Observatory-LONEOS MPS 90464
